EHI
9 10 11 10 9 6 5 5 4 3 4 3 1 0 0 0 0 0 0 0 0 0 0 0 0 0 0 0 0 0 0 0 0 0 0 0 0 0 0 0 0 0 0
13 13 11 10 8 6 4 4 3 2 2 2 1 0 0 0 0 0 0 0 0 0 0 0 0 0 0 0 0 0 0 0 0 0 0 0 0 0 0 0 0 0 0
17 16 13 10 7 5 4 2 1 1 2 2 1 0 0 0 0 0 0 0 0 0 0 0 0 0 0 0 0 0 0 0 0 0 0 0 0 0 0 0 0 0 0
18 18 15 11 7 4 2 1 0 1 2 2 1 0 0 0 0 0 0 0 0 0 0 0 0 0 0 0 0 0 0 0 0 0 0 0 0 0 0 0 0 0 0
17 17 16 12 8 4 1 0 1 2 3 2 0 0 0 0 0 0 0 0 0 0 0 0 0 0 0 0 0 0 0 0 0 0 0 0 0 0 0 0 0 0 0
15 15 14 11 7 3 1 0 2 3 3 2 1 0 0 0 0 0 0 0 0 0 0 0 0 0 0 0 0 0 0 0 0 0 0 0 0 0 0 0 0 0 0
12 12 12 11 7 3 0 0 1 2 3 3 2 1 0 0 0 0 0 0 0 0 0 0 0 0 0 0 0 0 0 0 0 0 0 0 0 0 0 0 0 0 0
8 9 10 9 6 2 0 0 1 1 2 2 2 1 0 0 0 0 0 0 0 0 0 0 0 0 0 0 0 0 0 0 0 0 0 0 0 0 0 0 0 0 0
6 7 7 6 4 2 1 1 1 1 1 1 1 0 0 0 0 0 0 0 0 0 0 0 0 0 0 0 0 0 0 0 0 0 0 0 0 0 0 0 0 0 0
5 5 4 3 1 1 1 1 1 1 0 0 0 0 0 0 0 0 0 0 0 0 0 0 0 0 0 0 0 0 0 0 0 0 0 0 0 0 0 0 0 0 0
3 3 2 0 0 1 1 1 2 2 1 0 0 0 0 0 0 0 0 0 0 0 0 0 0 0 0 0 0 0 0 0 0 0 0 0 0 0 0 0 0 0 0
1 1 0 0 1 2 2 3 3 3 2 1 0 0 0 0 0 0 0 0 0 0 0 0 0 0 0 0 0 0 0 0 0 0 0 0 0 0 0 0 0 0 0
0 0 0 0 1 2 3 3 3 3 3 2 1 0 0 0 0 0 0 0 0 0 0 0 0 0 0 0 0 0 0 0 0 0 0 0 0 0 0 0 0 0 0
0 0 0 0 0 1 2 3 3 3 3 2 1 0 0 0 0 0 0 0 0 0 0 0 0 0 0 0 0 0 0 0 0 0 0 0 0 0 0 0 0 0 0
0 0 0 0 0 0 1 3 3 2 3 2 1 0 0 0 0 0 0 0 0 0 0 0 0 0 0 0 0 0 0 0 0 0 0 0 0 0 0 0 0 0 0
0 0 0 0 0 0 1 2 3 3 3 2 0 0 0 0 0 0 0 0 0 0 0 0 0 0 0 0 0 0 0 0 0 0 0 0 0 0 0 0 0 0 0
0 0 0 0 0 0 0 1 2 2 2 1 0 0 0 0 0 0 0 0 0 0 0 0 0 0 0 0 0 0 0 0 0 0 0 0 0 0 0 0 0 0 0
0 0 0 0 0 0 0 0 1 1 1 1 0 0 0 0 0 0 0 0 0 0 0 0 0 0 0 0 0 0 0 0 0 0 0 0 0 0 0 0 0 0 0
0 0 0 0 0 0 0 0 1 0 0 0 0 0 0 0 0 0 0 0 0 0 0 0 0 0 0 0 0 0 0 0 0 0 0 0 0 0 0 0 0 0 0
0 0 0 0 0 0 0 0 0 0 0 0 0 0 0 0 0 0 0 0 0 0 0 0 0 0 0 0 0 0 0 0 0 0 0 0 0 0 0 0 0 0 0
0 0 0 0 0 0 0 0 0 0 0 0 0 0 0 0 0 0 0 0 0 0 0 0 0 0 0 0 0 0 0 0 0 0 0 0 0 0 0 0 0 0 0
0 0 0 0 0 0 0 0 0 0 0 0 0 0 0 0 0 0 0 0 0 0 0 0 0 0 0 0 0 0 0 0 0 0 0 0 0 0 0 0 0 0 0
0 0 0 0 0 0 0 0 0 0 0 0 0 0 0 0 0 0 0 0 0 0 0 0 0 0 0 0 0 0 0 0 0 0 0 0 0 0 0 0 0 0 0
0 0 0 0 0 0 0 0 0 0 0 0 0 0 0 0 0 0 0 0 0 0 0 0 0 0 0 0 0 0 0 0 0 0 0 0 0 0 0 0 0 0 0
0 0 0 0 0 0 0 0 0 0 0 0 0 0 0 0 0 0 0 0 0 0 0 0 0 0 0 0 0 0 0 0 0 0 0 0 0 0 0 0 0 0 0
0 0 0 0 0 0 0 0 0 0 0 0 0 0 0 0 0 0 0 0 0 0 0 0 0 0 0 0 0 0 0 0 0 0 0 0 0 0 0 0 0 0 0
Wind_Speed
5 4 5 5 5 4 4 3 3 3 3 3 2 2 2 1 2 2 3 3 3 3 2 2 2 2 2 2 2 1 2 2 2 2 2 2 2 2 3 3 3 4 4
6 5 5 4 4 4 3 3 2 3 3 2 2 2 2 1 1 2 3 3 3 3 2 2 2 2 2 2 2 2 1 1 2 1 1 2 3 3 3 3 3 4 4
8 7 6 5 4 4 3 3 2 2 3 3 3 3 3 2 2 2 2 3 3 3 2 2 1 2 2 1 2 1 1 1 1 1 1 0 1 2 2 3 3 4 3
7 7 7 6 5 4 4 3 4 4 3 4 4 4 3 1 0 1 1 3 3 3 3 2 2 2 1 1 2 1 0 0 1 1 1 0 1 1 2 2 2 3 4
8 8 7 7 5 4 4 4 5 4 3 3 4 4 3 1 1 1 2 2 3 3 3 2 2 2 1 1 1 1 1 0 0 0 1 1 0 0 1 2 2 2 2
7 7 6 6 5 5 4 4 5 4 3 3 3 3 3 2 2 1 1 2 2 2 3 3 2 2 1 1 1 1 1 0 0 1 1 1 1 1 1 1 1 2 2
8 8 8 7 7 6 4 4 4 3 3 3 2 2 2 2 2 0 1 1 1 2 3 3 2 2 1 1 1 1 1 1 1 1 1 1 1 1 1 1 1 1 1
7 7 7 7 7 6 5 4 4 3 2 2 2 1 2 1 1 1 1 1 1 2 2 2 2 2 2 2 1 1 1 1 1 1 1 1 1 1 2 2 1 1 1
7 7 7 7 6 6 4 4 4 3 2 2 2 2 1 1 0 0 0 1 1 1 2 2 2 2 2 2 1 1 1 1 1 1 1 1 1 1 2 2 2 2 2
6 7 7 7 6 5 4 3 4 3 2 2 2 2 2 1 1 1 1 1 2 2 2 2 2 3 3 3 2 1 2 2 2 1 2 1 1 1 1 1 2 2 2
6 6 6 6 6 5 4 3 3 3 2 2 2 3 2 2 2 2 2 2 2 2 2 2 2 2 3 3 2 2 2 2 3 2 2 2 2 1 1 1 1 1 1
5 5 6 6 6 6 5 4 4 3 2 2 3 2 2 2 2 2 2 2 2 2 2 3 3 3 3 3 3 3 3 2 3 3 3 3 2 1 1 1 1 1 2
6 5 5 5 5 5 4 4 4 3 3 3 3 3 2 2 2 1 2 2 2 2 3 3 3 3 3 3 3 3 3 3 3 3 3 3 2 2 2 1 1 1 1
7 6 6 5 5 4 4 4 3 3 3 3 3 2 1 1 1 1 2 2 2 2 2 3 3 3 3 3 3 3 3 3 3 3 3 3 2 2 2 1 1 1 1
7 7 7 5 5 4 4 4 3 3 3 3 2 1 1 1 1 1 2 2 2 2 2 3 3 3 2 3 3 3 3 3 4 4 4 3 3 2 2 1 1 1 1
8 7 7 7 6 6 5 4 4 3 4 3 2 1 1 1 1 1 2 2 2 3 3 3 3 4 3 4 4 3 2 3 4 4 4 4 3 3 3 2 2 2 3
8 9 8 7 7 6 6 6 4 3 4 3 2 2 2 1 0 0 1 1 2 2 3 3 3 4 5 6 5 4 2 3 3 3 4 4 4 4 2 2 2 1 3
8 8 8 7 6 5 5 5 4 4 3 3 2 2 2 1 0 1 1 1 1 1 2 2 3 3 5 6 5 4 2 2 3 3 3 3 4 3 3 2 2 2 1
7 7 7 7 6 6 6 6 5 4 3 3 2 2 2 2 1 0 1 1 1 2 2 2 3 3 5 6 5 3 2 2 3 4 3 3 3 4 3 1 2 2 2
6 6 6 6 6 6 6 6 5 4 3 3 2 2 2 2 2 1 1 1 1 2 2 3 3 3 4 6 6 3 1 2 3 3 3 4 4 4 3 1 1 2 3
6 7 7 6 6 6 7 6 5 4 3 3 2 2 2 2 2 1 1 1 1 2 2 3 4 3 4 5 5 3 1 1 3 3 3 3 5 5 4 2 2 3 3
6 7 7 6 5 6 7 6 4 3 3 3 2 2 1 1 1 1 1 1 1 2 3 3 5 3 3 3 4 4 2 1 2 3 3 4 6 6 5 3 2 3 2
6 6 7 6 5 5 7 6 4 4 3 3 2 1 1 1 1 1 1 1 1 1 2 2 3 4 4 3 4 4 4 3 2 3 6 7 7 6 4 3 3 2 1
6 6 7 7 5 5 5 5 4 4 4 3 2 1 1 1 1 1 2 2 2 2 2 3 3 4 4 4 3 2 3 3 3 4 5 6 5 4 3 3 2 1 2
5 6 7 6 6 5 4 4 5 5 4 3 2 1 1 1 2 2 2 3 4 4 4 4 3 3 4 5 5 3 3 3 3 3 2 2 3 3 3 3 3 2 1
5 6 6 6 5 5 4 4 4 5 4 3 2 1 1 1 1 2 3 4 6 7 8 9 7 6 8 8 8 7 6 6 5 2 2 3 3 3 3 4 3 3 2
Wind_Direction
144 131 122 119 112 101 101 104 109 113 119 116 112 98 81 55 38 36 37 33 30 35 46 32 22 26 31 13 19 20 15 3 356 2 348 347 10 31 21 20 28 28 26
151 140 132 129 130 124 115 111 121 128 124 113 115 111 108 81 57 25 27 27 28 22 32 37 25 19 29 25 26 34 26 356 10 11 353 342 346 8 16 22 34 27 29
167 158 149 141 135 136 150 147 127 122 114 109 101 94 74 56 39 21 9 6 17 20 19 23 29 22 40 18 6 24 58 356 341 9 52 11 302 322 346 17 28 25 31
167 162 154 147 146 149 145 134 116 102 101 107 114 117 110 101 53 342 343 352 8 8 12 11 18 28 29 14 351 21 36 99 331 328 19 236 216 265 323 340 7 17 31
170 164 155 146 137 132 128 127 112 99 99 107 118 111 102 109 81 37 14 360 354 360 9 14 13 17 11 357 357 5 18 80 214 284 332 337 346 233 224 292 325 350 6
160 151 141 132 126 124 115 110 107 101 100 105 112 125 126 115 85 42 6 346 338 345 1 11 9 1 354 347 338 340 349 345 259 257 226 218 245 266 238 260 288 311 326
155 153 148 144 140 132 119 112 111 103 102 109 113 127 135 138 139 164 303 324 332 330 335 358 354 341 335 340 343 346 335 305 269 257 248 236 234 224 215 229 260 284 306
155 157 154 149 146 137 132 125 117 107 106 109 109 113 129 135 156 197 230 294 290 295 317 345 352 348 349 0 7 353 326 318 306 307 273 245 249 230 216 207 209 270 297
154 150 147 146 140 134 134 135 127 113 103 99 96 87 87 107 138 347 27 305 298 312 348 353 359 351 353 0 4 349 331 335 334 312 296 265 255 247 239 213 207 208 252
147 142 141 138 134 130 125 122 121 120 114 103 94 87 71 71 69 39 5 350 347 1 4 2 357 353 357 1 5 346 331 343 328 297 293 287 266 266 250 223 219 214 221
146 140 140 139 133 128 133 133 122 115 111 105 94 83 65 64 67 58 31 20 16 12 11 359 360 1 0 357 359 347 341 337 331 327 311 304 290 283 284 252 218 213 212
136 136 136 137 139 142 145 144 138 134 132 120 102 90 72 64 60 47 26 23 24 12 8 7 11 7 3 357 355 344 346 339 336 332 330 319 320 326 315 288 259 242 225
142 138 138 147 152 151 151 148 144 142 136 123 110 96 79 69 51 31 17 18 22 13 11 16 11 1 357 358 355 348 347 342 330 326 325 316 327 323 313 298 273 256 229
157 156 155 158 161 158 155 152 146 142 135 121 115 112 110 87 36 11 17 22 22 15 8 8 2 353 353 353 353 359 358 348 338 331 322 313 302 279 292 294 271 227 184
166 167 166 161 159 156 154 151 147 142 136 128 128 141 121 89 59 29 23 21 14 8 360 1 358 352 346 345 344 345 351 345 338 339 335 320 315 295 278 271 255 212 195
176 173 170 165 165 167 163 156 155 151 139 140 146 143 117 90 62 35 34 23 6 360 0 354 350 348 341 340 344 338 340 336 336 335 333 334 339 338 330 312 277 220 203
177 175 176 173 170 169 164 163 163 148 143 147 152 149 136 117 81 48 50 19 353 354 346 340 347 339 327 333 338 340 336 330 327 328 331 338 345 348 341 331 327 285 229
178 176 171 168 164 159 156 153 148 147 150 157 164 163 149 153 113 50 13 337 335 337 322 325 331 328 326 336 338 344 352 335 333 327 321 323 328 334 331 331 340 330 301
174 171 167 163 159 159 157 148 150 151 157 174 180 180 164 157 147 319 304 309 324 323 318 312 319 323 321 334 336 345 352 342 331 326 329 327 326 330 342 356 343 337 330
154 153 149 146 154 160 151 148 157 160 181 192 189 173 163 167 190 229 266 287 291 297 312 317 318 312 311 325 335 348 342 333 326 327 326 326 331 335 338 319 306 314 311
149 147 146 154 163 155 149 153 161 184 197 185 167 163 170 182 199 222 261 286 299 311 319 321 319 313 304 316 328 335 321 303 316 320 321 319 330 330 321 289 252 258 273
146 148 149 156 155 152 152 158 180 190 167 155 155 165 183 199 174 177 290 300 300 316 321 324 321 316 309 307 312 319 303 269 278 291 298 302 315 318 314 301 273 267 263
151 149 149 148 151 159 158 167 184 164 149 148 165 183 195 202 190 196 252 296 292 286 298 305 306 309 313 307 308 311 311 294 268 280 291 302 311 314 312 305 298 279 252
150 146 145 150 163 169 170 177 172 154 148 160 186 192 195 244 259 234 231 240 256 267 279 284 289 297 303 302 309 315 314 311 300 300 305 310 313 313 300 303 303 272 233
145 148 154 163 172 169 174 176 164 154 155 172 193 202 207 231 263 267 244 239 244 231 237 255 254 265 284 283 281 284 292 292 290 302 303 316 324 327 327 320 307 290 251
146 149 157 163 167 165 174 174 164 160 161 176 199 211 223 244 255 278 301 271 248 258 246 239 239 249 249 269 284 286 284 287 291 285 290 298 300 299 302 304 303 294 280